Location: Fountain Hills
(33.6120°N, 111.7170°W)
Time: 13:18:54
(UTC-07:00)

Hamsat - Visible Passes

Search period start: 01 October 2014 00:00
Search period end: 11 October 2014 00:00
Orbit: 593 x 629 km, 97.6° (Epoch: 30 September)

Date Brightness Start Highest point End Pass type
(mag) Time Alt. Az. Time Alt. Az. Time Alt. Az.
01 Oct ? 05:40:19 10° NE 05:43:57 28° E 05:47:32 10° SSE visible
02 Oct ? 05:54:27 10° NNE 05:58:27 43° E 06:02:24 10° S visible
03 Oct ? 18:34:52 10° SW 18:37:57 19° W 18:41:03 10° NW visible
04 Oct ? 18:50:35 10° WSW 18:52:31 13° W 18:54:26 10° WNW visible
06 Oct ? 05:17:43 10° ENE 05:20:08 15° E 05:22:33 10° SE visible
07 Oct ? 05:31:23 10° NE 05:34:40 22° E 05:37:57 10° SSE visible
08 Oct ? 05:45:22 10° NNE 05:49:11 33° E 05:52:57 10° SSE visible
09 Oct ? 05:59:34 10° NNE 06:03:39 51° E 06:07:42 10° S visible
09 Oct ? 18:25:12 10° SSW 18:28:40 24° W 18:32:08 10° NW visible
10 Oct ? 18:40:33 10° SW 18:43:12 16° W 18:45:50 10° NW visible
